TimeAKST,TemperatureF,Dew PointF,Humidity,Sea Level PressureIn,VisibilityMPH,Wind Direction,Wind SpeedMPH,Gust SpeedMPH,PrecipitationIn,Events,Conditions,WindDirDegrees,DateUTC
12:17 AM,35.6,33.8,93,30.08,9.0,NE,4.6,-,0.01,Rain,Light Rain,40,2012-11-09 09:17:00
12:53 AM,36.0,33.1,89,30.07,9.0,NE,5.8,-,0.04,,Overcast,40,2012-11-09 09:53:00
1:26 AM,37.4,33.8,87,30.04,10.0,NE,5.8,-,0.01,,Overcast,40,2012-11-09 10:26:00
1:53 AM,37.9,34.0,86,30.03,10.0,NE,5.8,-,0.03,Rain,Light Rain,40,2012-11-09 10:53:00
3:53 AM,37.9,34.0,86,29.98,10.0,NNE,4.6,-,0.00,Rain,Light Rain,30,2012-11-09 12:53:00
4:53 AM,39.9,33.1,77,29.95,10.0,NE,5.8,-,0.00,,Overcast,40,2012-11-09 13:53:00
5:53 AM,41.0,32.0,70,29.93,10.0,ENE,4.6,-,N/A,,Overcast,70,2012-11-09 14:53:00
6:53 AM,41.0,32.0,70,29.90,10.0,NE,4.6,-,0.00,,Overcast,50,2012-11-09 15:53:00
7:53 AM,41.0,32.0,70,29.89,10.0,East,5.8,-,N/A,,Overcast,100,2012-11-09 16:53:00
8:53 AM,43.0,33.1,68,29.88,10.0,East,6.9,-,N/A,,Overcast,90,2012-11-09 17:53:00
9:53 AM,41.0,34.0,76,29.86,10.0,Calm,Calm,-,0.00,Rain,Light Rain,0,2012-11-09 18:53:00
10:53 AM,39.0,35.1,86,29.85,10.0,Calm,Calm,-,0.00,,Overcast,0,2012-11-09 19:53:00
11:53 AM,41.0,35.1,79,29.83,10.0,North,3.5,-,N/A,,Overcast,360,2012-11-09 20:53:00
12:53 PM,42.1,36.0,79,29.82,10.0,Calm,Calm,-,N/A,,Overcast,0,2012-11-09 21:53:00
1:53 PM,43.0,36.0,76,29.78,10.0,Calm,Calm,-,N/A,,Overcast,0,2012-11-09 22:53:00
2:53 PM,42.1,37.9,85,29.75,10.0,Calm,Calm,-,N/A,,Overcast,0,2012-11-09 23:53:00
3:53 PM,44.1,34.0,68,29.73,10.0,Calm,Calm,-,N/A,,Overcast,0,2012-11-10 00:53:00
4:53 PM,42.1,36.0,79,29.71,10.0,Calm,Calm,-,N/A,,Overcast,0,2012-11-10 01:53:00
5:53 PM,39.0,35.1,86,29.70,10.0,Calm,Calm,-,N/A,,Overcast,0,2012-11-10 02:53:00
6:53 PM,37.9,34.0,86,29.68,10.0,Calm,Calm,-,N/A,,Overcast,0,2012-11-10 03:53:00
7:53 PM,39.0,34.0,82,29.67,10.0,Calm,Calm,-,N/A,,Overcast,0,2012-11-10 04:53:00
8:53 PM,37.9,34.0,86,29.65,10.0,Calm,Calm,-,N/A,,Overcast,0,2012-11-10 05:53:00
9:53 PM,39.9,34.0,79,29.65,10.0,NNE,4.6,-,N/A,,Overcast,30,2012-11-10 06:53:00
10:53 PM,37.0,33.1,86,29.63,10.0,Calm,Calm,-,N/A,,Overcast,0,2012-11-10 07:53:00
11:53 PM,39.0,34.0,82,29.62,10.0,South,3.5,-,0.00,,Overcast,170,2012-11-10 08:53:00